1292889632589,86.0654
1292889692589,85.9127
1292889752589,86.1486
1292889812589,86.2826
1292889872589,86.0797
1292889932589,85.8655
1292889992589,85.6797
1292890052589,85.9398
1292890112589,86.3270
1292890172589,85.5438
1292890232589,85.9565
1292890292589,86.1524
1292890352589,86.1042
1292890412589,85.9569
1292890472589,85.9041
1292890532589,85.9529
1292890592589,85.7686
1292890652589,85.6840
1292890712589,86.0268
1292890772589,85.6615
1292890832589,85.5357
1292890892589,85.7646
1292890952589,85.6526
1292891012589,85.6907
1292891072589,85.7677
1292891132589,85.5686
1292891192589,85.7918
1292891252589,85.5754
1292891312589,85.3980
1292891372589,85.6426
1292891432589,85.8891
1292891492589,85.5662
1292891552589,85.8737
1292891612589,85.1973
1292891672589,85.6138
1292891732589,85.5859
1292891792589,85.7362
1292891852589,85.3475
1292891912589,85.5776
1292891972589,86.2236
1292892032589,85.3625
1292892092589,85.3282
1292892152589,85.7717
1292892212589,85.7199
1292892272589,85.3507
1292892332589,85.5961
1292892392589,85.5313
1292892452589,85.8256
1292892512589,85.8170
1292892572589,85.6992
1292892632589,85.4405
1292892692589,85.6510
1292892752589,85.4338
1292892812589,85.6808
1292892872589,85.7265
1292892932589,85.2409
1292892992589,85.3649
1292893052589,85.7185
1292893112589,85.6526
1292893172589,84.8883
1292893232600,85.9301
1292893292600,85.6733
1292893352600,85.4973
1292893412600,86.2008
1292893472600,85.6357
1292893532600,85.4149
1292893592600,85.7614
1292893652600,85.3513
1292893712600,85.6782
1292893772600,85.3472
1292893832600,85.7145
1292893892600,85.3456
1292893952600,85.5805
1292894012600,85.3225
1292894072600,85.1611
1292894132600,85.1744
1292894192600,85.2286
1292894252600,85.7685
1292894312600,85.8875
1292894372600,85.6066
1292894432600,85.4841
1292894492600,85.1717
1292894552600,85.4416
1292894612600,85.6278
1292894672600,85.7561
1292894732600,85.4885
1292894792600,85.7795
1292894852600,85.9469
1292894912600,85.4915
1292894972600,85.8689
1292895032600,85.4062
1292895092600,85.3607
1292895152600,85.6834
1292895212600,85.4854
1292895272600,85.3043
1292895332600,85.4535
1292895392600,85.6077
1292895452600,84.9655
1292895512600,85.2298
1292895572600,85.6032
1292895632600,85.3980
1292895692600,85.7421
1292895752600,85.4130
1292895812600,85.4566
1292895872600,85.6777
1292895932600,85.6431
1292895992600,85.5353
1292896052600,85.5422
1292896112600,85.5578
1292896172600,85.5870
1292896232600,85.3544
1292896292600,85.2076
1292896352600,85.4784
1292896412600,85.5626
1292896472600,85.5635
1292896532600,85.2392
1292896592600,85.5031
1292896652600,85.6039
1292896712600,85.7139
1292896772600,85.2787
1292896832610,85.7859
1292896892610,85.0536
1292896952610,85.2361
1292897012610,85.4841
1292897072610,85.6969
1292897132610,85.2333
1292897192610,85.6552
1292897252610,85.2430
1292897312610,85.6368
1292897372610,85.4553
1292897432610,85.1221
1292897492610,85.8007
1292897552610,85.4100
1292897612610,85.5717
1292897672610,85.1884
1292897732610,85.8702
1292897792610,85.6502
1292897852610,85.1406
1292897912610,85.5588
1292897972610,85.9809
1292898032610,85.2968
1292898092610,85.4850
1292898152610,85.4870
1292898212610,85.4483
1292898272610,85.1569
1292898332610,85.6373
1292898392610,85.5626
1292898452610,85.6544
1292898512610,85.6348
1292898572610,85.5264
1292898632610,85.5984
1292898692610,85.3068
1292898752610,85.2963
1292898812610,85.6596
1292898872610,85.8111
1292898932610,85.5284
1292898992610,85.4533
1292899052610,85.2315
1292899112610,85.6238
1292899172610,85.0870
1292899232610,85.4536
1292899292610,85.3955
1292899352610,85.9489
1292899412610,85.6720
1292899472610,85.3192
1292899532610,85.2464
1292899592610,85.5108
1292899652610,85.6014
1292899712610,85.0872
1292899772610,85.0812
1292899832610,85.6435
1292899892610,85.7133
1292899952610,85.7127
1292900012610,85.6778
1292900072610,85.4905
1292900132610,85.3573
1292900192610,85.9141
1292900252610,85.6430
1292900312610,85.5186
1292900372610,85.6677
1292900432621,85.8399
1292900492621,85.4980
1292900552621,85.9548
1292900612621,85.3197
1292900672621,85.6337
1292900732621,86.2077
1292900792621,85.6799
1292900852621,85.8360
1292900912621,85.6923
1292900972621,85.4421
1292901032621,85.6910
1292901092621,85.6923
1292901152621,84.9990
1292901212621,85.5740
1292901272621,85.5756
1292901332621,85.5998
1292901392621,85.0565
1292901452621,85.4954
1292901512621,85.2151
1292901572621,85.1033
1292901632621,85.4901
1292901692621,84.9937
1292901752621,85.2946
1292901812621,85.1778
1292901872621,85.4958
1292901932621,85.4277
1292901992621,85.3728
1292902052621,85.0996
1292902112621,85.5940
1292902172621,87.0882
1292902232621,84.9214
1292902292621,85.5540
1292902352621,85.2186
1292902412621,84.9825
1292902472621,85.5903
1292902532621,85.5128
1292902592621,85.4765
1292902652621,85.2309
1292902712621,85.3704
1292902772621,85.4102
1292902832621,85.0827
1292902892621,85.3657
1292902952621,85.3947
1292903012621,85.2827
1292903072621,85.2111
1292903132621,85.0434
1292903192621,85.7015
1292903252621,84.7696
1292903312621,84.9838
1292903372621,84.7683
1292903432621,85.5433
1292903492621,84.9051
1292903552621,85.0842
1292903612621,85.0916
1292903672621,84.9384
1292903732621,85.0931
1292903792621,85.4037
1292903852621,85.0329
1292903912621,85.3147
1292903972621,85.3877
1292904032631,85.1926
1292904092631,85.0754
1292904152631,85.4322
1292904212631,85.1598
1292904272631,85.2194
1292904332631,85.2603
1292904392631,84.9114
1292904452631,84.9953
1292904512631,85.2398
1292904572631,84.9293
1292904632631,85.2323
1292904692631,85.2925
1292904752631,85.0595
1292904812631,84.9373
1292904872631,84.8749
1292904932631,85.5599
1292904992631,84.7568
1292905052631,85.0536
1292905112631,85.0864
1292905172631,84.7401
1292905232631,84.8698
1292905292631,85.3125
1292905352631,85.1603
1292905412631,85.1243
1292905472631,84.9991
1292905532631,85.2937
1292905592631,85.1750
1292905652631,85.2434
1292905712631,85.0261
1292905772631,85.3105
1292905832631,84.9535
1292905892631,84.7470
1292905952631,85.1134
1292906012631,85.5652
1292906072631,85.0879
1292906132631,84.8626
1292906192631,84.7727
1292906252631,84.7877
1292906312631,84.9614
1292906372631,84.7252
1292906432631,84.8886
1292906492631,84.5440
1292906552631,84.8220
1292906612631,85.3062
1292906672631,85.2533
1292906732631,84.8144
1292906792631,85.2073
1292906852631,85.0512
1292906912631,84.9943
1292906972631,85.0359
1292907032631,85.1586
1292907092631,84.3071
1292907152631,84.4463
1292907212631,84.3752
1292907272631,84.5038
1292907332631,84.4376
1292907392631,84.8841
1292907452631,84.9216
1292907512631,85.0693
1292907572631,84.7133
1292907632642,84.5688
1292907692642,85.3494
1292907752642,84.3783
1292907812642,85.0629
1292907872642,84.8030
1292907932642,84.9428
1292907992642,84.5361
1292908052642,85.2008
1292908112642,85.0935
1292908172642,84.9596
1292908232642,84.8560
1292908292642,84.7824
1292908352642,84.9003
1292908412642,84.7983
1292908472642,84.6287
1292908532642,84.9580
1292908592642,84.6387
1292908652642,84.4902
1292908712642,84.6839
1292908772642,84.3109
1292908832642,84.9300
1292908892642,85.3757
1292908952642,84.9166
1292909012642,85.3886
1292909072642,84.8811
1292909132642,85.2508
1292909192642,85.0495
1292909252642,84.7909
1292909312642,84.9068
1292909372642,84.8592
1292909432642,84.8189
1292909492642,85.1762
1292909552642,85.0527
1292909612642,84.4027
1292909672642,85.0066
1292909732642,84.9137
1292909792642,84.9704
1292909852642,84.4379
1292909912642,84.5840
1292909972642,84.6169
1292910032642,84.6442
1292910092642,84.5569
1292910152642,84.8834
1292910212642,84.6346
1292910272642,84.5957
1292910332642,84.6806
1292910392642,84.5744
1292910452642,84.6351
1292910512642,85.1214
1292910572642,84.7936
1292910632642,84.5408
1292910692642,84.6067
1292910752642,84.9241
1292910812642,84.5389
1292910872642,85.1113
1292910932642,84.7102
1292910992642,84.6727
1292911052642,84.4452
1292911112642,84.7603
1292911172642,84.6093
1292911232653,84.9738
1292911292653,84.7984
1292911352653,84.6656
1292911412653,84.6998
1292911472653,84.4994
1292911532653,84.4510
1292911592653,83.9147
1292911652653,84.3519
1292911712653,84.3044
1292911772653,84.3980
1292911832653,84.7855
1292911892653,84.8347
1292911952653,84.5508
1292912012653,84.8808
1292912072653,84.3680
1292912132653,85.2050
1292912192653,84.6264
1292912252653,84.3470
1292912312653,84.8419
1292912372653,84.6217
1292912432653,84.7400
1292912492653,84.8085
1292912552653,84.2675
1292912612653,84.7724
1292912672653,84.6607
1292912732653,84.4654
1292912792653,84.7891
1292912852653,85.0860
1292912912653,84.4455
1292912972653,84.4281
1292913032653,84.4619
1292913092653,84.2999
1292913152653,84.5142
1292913212653,84.5865
1292913272653,84.5976
1292913332653,84.5248
1292913392653,84.2926
1292913452653,84.4363
1292913512653,84.4753
1292913572653,84.4943
1292913632653,84.7490
1292913692653,84.5697
1292913752653,85.0307
1292913812653,84.6926
1292913872653,84.7370
1292913932653,84.7485
1292913992653,84.9335
1292914052653,85.0828
1292914112653,84.7768
1292914172653,84.7205
1292914232653,85.2649
1292914292653,85.3382
1292914352653,84.9998
1292914412653,84.9065
1292914472653,85.2579
1292914532653,85.1956
1292914592653,85.3084
1292914652653,84.9502
1292914712653,84.9790
1292914772653,85.3460
1292914832664,84.9827
1292914892664,85.3114
1292914952664,84.6783
1292915012664,84.7877
1292915072664,85.0523
1292915132664,84.6259
1292915192664,85.0237
1292915252664,85.1175
1292915312664,85.2123
1292915372664,85.4795
1292915432664,84.9742
1292915492664,85.1557
1292915552664,85.2660
1292915612664,85.2784
1292915672664,85.1674
1292915732664,84.9279
1292915792664,84.9821
1292915852664,85.4171
1292915912664,85.1253
1292915972664,85.2214
1292916032664,86.9209
1292916092664,85.1039
1292916152664,85.8264
1292916212664,85.7766
1292916272664,85.8042
1292916332664,85.2244
1292916392664,85.2766
1292916452664,85.3058
1292916512664,85.1960
1292916572664,85.0240
1292916632664,85.3580
1292916692664,85.5435
1292916752664,85.1140
1292916812664,85.2665
1292916872664,85.0706
1292916932664,85.5985
1292916992664,85.4387
1292917052664,85.4621
1292917112664,85.3609
1292917172664,85.4169
1292917232664,85.3806
1292917292664,85.2820
1292917352664,85.3589
1292917412664,85.6886
1292917472664,85.5643
1292917532664,85.5426
1292917592664,85.2903
1292917652664,85.3602
1292917712664,85.8244
1292917772664,85.2632
1292917832664,85.1600
1292917892664,85.5295
1292917952664,85.5487
1292918012664,85.3905
1292918072664,85.7683
1292918132664,85.3710
1292918192664,85.2724
1292918252664,85.1870
1292918312664,85.4814
1292918372664,85.7422
1292918432675,85.6486
1292918492675,85.5724
1292918552675,85.2321
1292918612675,85.6179
1292918672675,85.4030
1292918732675,85.8077
1292918792675,85.7577
1292918852675,85.9532
1292918912675,85.3589
1292918972675,85.8128
1292919032675,85.4225
1292919092675,86.0280
1292919152675,85.5244
1292919212675,85.2573
1292919272675,85.6181
1292919332675,85.5535
1292919392675,85.6944
1292919452675,85.6179
1292919512675,85.5392
1292919572675,85.9726
1292919632675,85.9757
1292919692675,85.3921
1292919752675,85.7735
1292919812675,85.8301
1292919872675,85.4954
1292919932675,85.5830
1292919992675,85.9202
1292920052675,85.2096
1292920112675,85.7375
1292920172675,85.5962
1292920232675,85.5187
1292920292675,86.0047
1292920352675,85.7953
1292920412675,85.9437
1292920472675,85.9415
1292920532675,85.8062
1292920592675,85.7791
1292920652675,85.6376
1292920712675,85.7182
1292920772675,85.8907
1292920832675,85.8546
1292920892675,85.9344
1292920952675,85.9330
1292921012675,85.2764
1292921072675,85.9001
1292921132675,85.8451
1292921192675,85.3186
1292921252675,85.8084
1292921312675,85.6948
1292921372675,85.1901
1292921432675,85.6342
1292921492675,85.4478
1292921552675,85.8093
1292921612675,85.6168
1292921672675,85.3182
1292921732675,85.5490
1292921792675,85.7728
1292921852675,85.9856
1292921912675,85.6311
1292921972675,86.2299
1292922032687,85.7924
1292922092687,85.8099
1292922152687,85.5196
1292922212687,85.8018
1292922272687,85.6642
1292922332687,85.8110
1292922392687,85.9606
1292922452687,85.7611
1292922512687,85.9295
1292922572687,85.7819
1292922632687,86.3159
1292922692687,85.7173
1292922752687,85.7904
1292922812687,85.5356
1292922872687,85.3730
1292922932687,85.1789
1292922992687,85.2936
1292923052687,85.3082
1292923112687,85.6556
1292923172687,85.5505
1292923232687,85.4955
1292923292687,85.7630
1292923352687,85.5897
1292923412687,86.1136
1292923472687,85.5104
1292923532687,85.9212
1292923592687,85.7952
1292923652687,85.6076
1292923712687,85.8311
1292923772687,85.6862
1292923832687,86.0063
1292923892687,85.3025
1292923952687,85.6691
1292924012687,86.2113
1292924072687,85.9468
1292924132687,85.8119
1292924192687,85.7894
1292924252687,85.3888
1292924312687,85.6071
1292924372687,85.7719
1292924432687,85.6477
1292924492687,85.5915
1292924552687,86.0388
1292924612687,85.8805
1292924672687,86.3616
1292924732687,85.7719
1292924792687,86.0298
1292924852687,86.0794
1292924912687,85.9110
1292924972687,86.1209
1292925032687,86.2576
1292925092687,85.8643
1292925152687,86.1013
1292925212687,85.7912
1292925272687,85.8253
1292925332687,85.7256
1292925392687,85.8731
1292925452687,85.8901
1292925512687,85.9015
1292925572687,86.1292
1292925632699,86.0271
1292925692699,86.3623
1292925752699,86.1488
1292925812699,85.8230
1292925872699,85.8157
1292925932699,85.6066
1292925992699,85.6775
1292926052699,86.0553
1292926112699,86.0322
1292926172699,86.0932
1292926232699,86.0171
1292926292699,85.8238
1292926352699,85.9168
1292926412699,86.5078
1292926472699,85.7906
1292926532699,85.9474
1292926592699,85.5814
1292926652699,86.1274
1292926712699,86.4171
1292926772699,86.0870
1292926832699,85.8167
1292926892699,85.6308
1292926952699,86.1892
1292927012699,85.5720
1292927072699,85.5233
1292927132699,86.0158
1292927192699,85.7952
1292927252699,86.0470
1292927312699,85.8570
1292927372699,86.0664
1292927432699,86.1543
1292927492699,85.7974
1292927552699,85.7765
1292927612699,86.0814
1292927672699,86.0125
1292927732699,85.4272
1292927792699,85.9141
1292927852699,85.6039
1292927912699,85.6740
1292927972699,86.2781
1292928032699,86.3386
1292928092699,86.2492
1292928152699,86.3099
1292928212699,86.4611
1292928272699,86.4583
1292928332699,86.2113
1292928392699,85.7181
1292928452699,85.9763
1292928512699,86.3143
1292928572699,86.2962
1292928632699,86.2479
1292928692699,86.1718
1292928752699,86.4463
1292928812699,86.1497
1292928872699,85.8433
1292928932699,86.1330
1292928992699,85.9421
1292929052699,86.2490
1292929112699,86.4586
1292929172699,86.1662
1292929232711,86.4532
1292929292711,85.9837
1292929352711,86.0548
1292929412711,86.5921
1292929472711,85.9246
1292929532711,86.2058
1292929592711,87.2518
1292929652711,85.8811
1292929712711,86.3281
1292929772711,86.0568
1292929832711,86.3266
1292929892711,86.3369
1292929952711,86.0008
1292930012711,86.5617
1292930072711,86.2106
1292930132711,85.9437
1292930192711,85.9083
1292930252711,85.4916
1292930312711,86.1097
1292930372711,86.3801
1292930432711,86.3711
1292930492711,85.9588
1292930552711,85.9943
1292930612711,86.1028
1292930672711,86.3443
1292930732711,86.2646
1292930792711,86.1925
1292930852711,86.5454
1292930912711,86.2059
1292930972711,86.6510
1292931032711,86.4147
1292931092711,86.2149
1292931152711,86.2731
1292931212711,86.2742
1292931272711,85.9817
1292931332711,86.2374
1292931392711,86.1825
1292931452711,86.2350
1292931512711,86.2195
1292931572711,86.2303
1292931632711,86.7159
1292931692711,85.6120
1292931752711,85.6731
1292931812711,86.4633
1292931872711,86.0758
1292931932711,85.9964
1292931992711,85.8948
1292932052711,86.2264
1292932112711,86.0581
1292932172711,86.1183
1292932232711,85.7990
1292932292711,86.3103
1292932352711,86.6656
1292932412711,86.4496
1292932472711,86.3755
1292932532711,86.3687
1292932592711,86.3363
1292932652711,86.4263
1292932712711,86.3808
1292932772711,86.4737
1292932832723,85.9297
1292932892723,86.1602
1292932952723,86.6501
1292933012723,86.1157
1292933072723,86.2936
1292933132723,86.1141
1292933192723,86.2844
1292933252723,85.8202
1292933312723,86.1059
1292933372723,86.4001
1292933432723,85.5374
1292933492723,86.0572
1292933552723,85.6455
1292933612723,86.1769
1292933672723,86.0311
1292933732723,85.7735
1292933792723,86.4685
1292933852723,86.1083
1292933912723,86.2545
1292933972723,86.6607
1292934032723,86.3796
1292934092723,86.1048
1292934152723,86.2858
1292934212723,86.1548
1292934272723,85.9179
1292934332723,85.9385
1292934392723,86.4952
1292934452723,85.7341
1292934512723,86.1185
1292934572723,86.1727
1292934632723,86.4317
1292934692723,86.2423
1292934752723,85.7196
1292934812723,86.3720
1292934872723,86.5283
1292934932723,85.9949
1292934992723,86.8381
1292935052723,86.5388
1292935112723,86.4121
1292935172723,86.3639
1292935232723,86.0638
1292935292723,86.7144
1292935352723,86.5142
1292935412723,86.4152
1292935472723,86.4514
1292935532723,86.6030
1292935592723,86.3957
1292935652723,86.7096
1292935712723,86.8801
1292935772723,86.1812
1292935832723,86.8966
1292935892723,86.2806
1292935952723,86.7079
1292936012723,86.5104
1292936072723,86.8236
1292936132723,86.6007
1292936192723,86.4701
1292936252723,87.0320
1292936312723,86.5781
1292936372723,86.2949
1292936432735,87.1098
1292936492735,86.1663
1292936552735,86.6759
1292936612735,86.4273
1292936672735,86.8259
1292936732735,86.4806
1292936792735,86.4133
1292936852735,86.6748
1292936912735,86.9818
1292936972735,86.7104
1292937032735,86.8161
1292937092735,87.0223
1292937152735,86.3172
1292937212735,86.6886
1292937272735,86.5026
1292937332735,86.7064
1292937392735,86.6834
1292937452735,86.2458
1292937512735,86.5227
1292937572735,86.6962
1292937632735,87.1116
1292937692735,86.0112
1292937752735,86.7105
1292937812735,86.9793
1292937872735,87.1342
1292937932735,86.3182
1292937992735,86.6664
1292938052735,86.3111
1292938112735,86.4746
1292938172735,86.9559
1292938232735,87.2707
1292938292735,87.2398
1292938352735,86.8623
1292938412735,86.4326
1292938472735,86.6317
1292938532735,86.6448
1292938592735,86.2889
1292938652735,86.9885
1292938712735,86.8081
1292938772735,86.5753
1292938832735,86.8471
1292938892735,87.0412
1292938952735,86.7347
1292939012735,87.0725
1292939072735,86.7186
1292939132735,86.6599
1292939192735,86.4617
1292939252735,86.6371
1292939312735,87.2192
1292939372735,86.7027
1292939432735,86.4627
1292939492735,86.8480
1292939552735,87.2912
1292939612735,86.4344
1292939672735,86.6470
1292939732735,86.8050
1292939792735,86.3540
1292939852735,87.0428
1292939912735,86.8368
1292939972735,86.8204
1292940032747,86.8209
1292940092747,86.7845
1292940152747,86.5475
1292940212747,86.6922
1292940272747,86.6438
1292940332747,86.3506
1292940392747,87.0356
1292940452747,86.6021
1292940512747,86.3690
1292940572747,86.8126
1292940632747,86.9449
1292940692747,86.8257
1292940752747,86.2199
1292940812747,86.4442
1292940872747,86.2263
1292940932747,87.2510
1292940992747,86.6674
1292941052747,87.1122
1292941112747,86.5863
1292941172747,86.6740
1292941232747,86.6623
1292941292747,86.8278
1292941352747,86.3682
1292941412747,86.5678
1292941472747,86.6537
1292941532747,86.7376
1292941592747,86.2282
1292941652747,86.6932
1292941712747,87.0189
1292941772747,86.9111
1292941832747,86.7718
1292941892747,86.0180
1292941952747,87.1400
1292942012747,86.9083
1292942072747,86.5703
1292942132747,86.1800
1292942192747,86.8765
1292942252747,86.4339
1292942312747,86.8532
1292942372747,86.7907
1292942432747,86.9077
1292942492747,86.8736
1292942552747,86.5599
1292942612747,86.8427
1292942672747,86.6183
1292942732747,86.6010
1292942792747,86.9650
1292942852747,87.0458
1292942912747,86.6560
1292942972747,86.7175
1292943032747,86.9584
1292943092747,86.8094
1292943152747,86.7752
1292943212747,86.9717
1292943272747,86.7280
1292943332747,86.9962
1292943392747,87.0136
1292943452747,86.5598
1292943512747,86.5610
1292943572747,86.2503
1292943632759,86.7672
1292943692759,86.2489
1292943752759,86.8738
1292943812759,86.4593
1292943872759,86.6433
1292943932759,86.8167
1292943992759,86.4830
1292944052759,86.4334
1292944112759,86.4156
1292944172759,86.4335
1292944232759,85.6867
1292944292759,85.1911
1292944832759,85.7843
1292944892759,85.4744
1292944952759,86.4106
1292945012759,86.7029
1292945072759,86.3006
1292945132759,85.9480
1292945192759,86.2565
1292945252759,86.6148
1292945312759,86.2770
1292945372759,86.3907
1292945432759,86.6721
1292945492759,86.5397
1292945552759,86.5726
1292945612759,86.3643
1292945672759,86.4422
1292945732759,86.6035
1292945792759,86.5162
1292945852759,86.8250
1292945912759,86.7066
1292945972759,86.9046
1292946032759,86.6568
1292946092759,86.2516
1292946152759,86.3056
1292946212759,86.4268
1292946272759,86.7284
1292946332759,86.4665
1292946392759,86.0844
1292946452759,86.2732
1292946512759,86.2626
1292946572759,86.4317
1292946632759,86.6099
1292946692759,86.4247
1292946752759,86.3049
1292946812759,86.5191
1292946872759,86.3922
1292946932759,86.0750
1292946992759,86.5622
1292947052759,86.6300
1292947112759,86.2351
1292947172759,86.0074
1292947232770,86.4664
1292947292770,86.3543
1292947352770,86.4684
1292947412770,86.3366
1292947472770,86.3768
1292947532770,86.2326
1292947592770,86.5103
1292947652770,86.6973
1292947712770,86.5638
1292947772770,86.2492
1292947832770,86.2747
1292947892770,86.4722
1292947952770,86.5956
1292948012770,86.4760
1292948072770,86.1474
1292948132770,86.1684
1292948192770,86.0191
1292948252770,86.3362
1292948312770,85.7838
1292948372770,86.1437
1292948432770,86.0824
1292948492770,86.5804
1292948552770,86.5844
1292948612770,86.7353
1292948672770,86.3907
1292948732770,86.6426
1292948792770,86.7802
1292948852770,86.5522
1292948912770,85.9236
1292948972770,86.2817
1292949032770,86.0745
1292949092770,85.8509
1292949152770,86.3156
1292949212770,86.3067
1292949272770,86.4072
1292949332770,86.3605
1292949392770,86.1203
1292949452770,86.4267
1292949512770,86.3086
1292949572770,85.9622
1292949632770,86.6579
1292949692770,86.4238
1292949752770,86.3862
1292949812770,86.1790
1292949872770,86.0138
1292949932770,85.8589
1292949992770,86.0606
1292950052770,86.1599
1292950112770,86.5420
1292950172770,86.0635
1292950232770,85.6711
1292950292770,86.4348
1292950352770,86.4457
1292950412770,86.2413
1292950472770,86.1921
1292950532770,86.3260
1292950592770,86.6448
1292950652770,86.1753
1292950712770,86.4501
1292950772770,86.1935
1292950832782,86.6139
1292950892782,86.7169
1292950952782,86.3222
1292951012782,86.2774
1292951072782,86.3038
1292951132782,86.1767
1292951192782,86.4159
1292951252782,85.9597
1292951312782,86.5289
1292951372782,86.7971
1292951432782,86.3049
1292951492782,86.2811
1292951552782,86.0798
1292951612782,86.1640
1292951672782,86.4997
1292951732782,86.5596
1292951792782,86.6047
1292951852782,86.5987
1292951912782,86.7041
1292951972782,86.1430
1292952032782,86.4414
1292952092782,86.1211
1292952152782,86.1556
1292952212782,86.0604
1292952272782,86.3651
1292952332782,86.2285
1292952392782,86.2629
1292952452782,86.2582
1292952512782,86.2408
1292952572782,86.5876
1292952632782,86.6706
1292952692782,86.7050
1292952752782,86.5899
1292952812782,86.0898
1292952872782,86.5343
1292952932782,86.5039
1292952992782,86.6973
1292953052782,86.7207
1292953112782,86.4010
1292953172782,86.5014
1292953232782,86.7126
1292953292782,86.6887
1292953352782,86.3199
1292953412782,86.1799
1292953472782,86.7503
1292953532782,86.5623
1292953592782,86.6076
1292953652782,86.2234
1292953712782,86.5151
1292953772782,86.5622
1292953832782,86.7908
1292953892782,85.9235
1292953952782,86.2347
1292954012782,86.6780
1292954072782,86.4543
1292954132782,86.9259
1292954192782,86.7935
1292954252782,86.6457
1292954312782,86.4631
1292954372782,86.3499
1292954432794,86.6545
1292954492794,87.1855
1292954552794,86.7922
1292954612794,86.3122
1292954672794,86.3948
1292954732794,86.1484
1292954792794,86.6384
1292954852794,86.5280
1292954912794,86.4461
1292954972794,86.6251
1292955032794,86.6417
1292955092794,86.5929
1292955152794,86.3283
1292955212794,86.5823
1292955272794,86.8320
1292955332794,86.9167
1292955392794,86.3966
1292955452794,86.5631